This is the latest recevied weather packets stored in our database for station/object DO1BDB-12. If no packets are shown the sender has not sent any weather packets the latest 10 day(s).
| Time | Temp. | Humidity | Pressure | Rain* | Wind** | Luminosity | Snow |
|---|---|---|---|---|---|---|---|
| 1777196473 | 16.67° C | 27% | 102.6 hPa | - | - | - | - |
| 1777196407 | 17.22° C | 28% | 102.6 hPa | - | - | - | - |
| 1777196342 | 16.67° C | 27% | 102.5 hPa | - | - | - | - |
| 1777196275 | 17.22° C | 26% | 102.5 hPa | - | - | - | - |
| 1777196209 | 18.33° C | 26% | 102.5 hPa | - | - | - | - |
| 1777196144 | 17.22° C | 25% | 102.5 hPa | - | - | - | - |
| 1777196078 | 17.22° C | 29% | 102.6 hPa | - | - | - | - |
| 1777196012 | 17.22° C | 28% | 102.6 hPa | - | - | - | - |
| 1777195946 | 16.67° C | 27% | 102.6 hPa | - | - | - | - |
| 1777195880 | 16.67° C | 28% | 102.5 hPa | - | - | - | - |
| 1777195814 | 15° C | 30% | 102.5 hPa | - | - | - | - |
| 1777195749 | 15.56° C | 28% | 102.5 hPa | - | - | - | - |
| 1777195683 | 15° C | 28% | 102.5 hPa | - | - | - | - |
| 1777195617 | 15.56° C | 30% | 102.5 hPa | - | - | - | - |
| 1777195551 | 15.56° C | 29% | 102.5 hPa | - | - | - | - |
| 1777195485 | 16.67° C | 30% | 102.5 hPa | - | - | - | - |
| 1777195419 | 16.67° C | 28% | 102.5 hPa | - | - | - | - |
| 1777195353 | 16.67° C | 27% | 102.5 hPa | - | - | - | - |
| 1777195288 | 17.22° C | 27% | 102.5 hPa | - | - | - | - |
| 1777195222 | 16.67° C | 27% | 102.5 hPa | - | - | - | - |
| 1777195156 | 16.67° C | 27% | 102.5 hPa | - | - | - | - |
| 1777195090 | 17.22° C | 26% | 102.5 hPa | - | - | - | - |
| 1777195024 | 17.78° C | 27% | 102.5 hPa | - | - | - | - |
| 1777194958 | 17.78° C | 26% | 102.5 hPa | - | - | - | - |
| 1777194893 | 17.22° C | 25% | 102.5 hPa | - | - | - | - |
* Rain since midnight (hover to see other rain measurements)
** Current wind speed in m/s (hover to see current wind gust speed)